Weather History for Mount Ida, AR

Change the Weather History Date:

Monday, August 19, 2013

  Actual Average (KHOT) Record (KHOT)
Temperature  
Mean Temperature 72 °F -  
Max Temperature 87 °F 93 °F 104 °F (1954)
Min Temperature 60 °F 68 °F 59 °F (1992)
Cooling Degree Days 7    
Growing Degree Days 22 (Base 50)    
Moisture  
Dew Point 64 °F    
Average Humidity 88    
Maximum Humidity 100    
Minimum Humidity 47    
Precipitation  
Precipitation 0.00 in - - ()
Sea Level Pressure  
Sea Level Pressure 30.06 in    
Wind  
Wind Speed 0 mph (SE)    
Max Wind Speed 4 mph    
Max Gust Speed -    
Visibility 5 miles    
Events Fog    
Averages and records for this station are not official NWS values.
T = Trace of Precipitation, MM = Missing Value Source: NWS Daily Summary

Daily Weather History Graph

Daily Weather History Graph

Search for Another Location

Airport:

Trip Planner

Search our weather history database for the weather conditions in past years. The results will help you decide how hot, cold, wet, or windy it might be!

Date:

Astronomy

Aug. 19, 2013 Rise Set
Actual Time 6:38 AM CDT 7:56 PM CDT
Civil Twilight 6:11 AM CDT 8:23 PM CDT
Nautical Twilight 5:40 AM CDT 8:54 PM CDT
Astronomical Twilight 5:07 AM CDT 9:27 PM CDT
Moon 6:48 PM CDT (8/19) 4:59 AM CDT (8/19)
Length of Visible Light 14h 11m
Length of Day
13h 18m
Waxing Gibbous, 97% of the Moon is Illuminated
Aug 19
Waxing Gibbous
Aug 20
Full
Aug 28
Last Quarter
Sep 5
New
Sep 12
First Quarter

Hourly Weather History & Observations

Time (CDT) Temp. Heat Index Dew Point Humidity Pressure Visibility Wind Dir Wind Speed Gust Speed Precip Events Conditions
12:53 AM 64.9 °F - 64.0 °F 97% 30.06 in 3.0 mi Calm Calm - N/A   Clear
1:53 AM 63.0 °F - 62.1 °F 97% 30.05 in 4.0 mi Calm Calm - N/A   Clear
2:53 AM 63.0 °F - 61.0 °F 93% 30.05 in 4.0 mi Calm Calm - N/A   Clear
3:40 AM 62.6 °F - 60.8 °F 94% 30.08 in 2.5 mi Calm Calm - N/A   Clear
3:53 AM 62.1 °F - 61.0 °F 96% 30.05 in 2.5 mi Calm Calm - N/A   Clear
4:01 AM 62.6 °F - 60.8 °F 94% 30.08 in 3.0 mi Calm Calm - N/A   Clear
4:32 AM 60.8 °F - 60.8 °F 100% 30.08 in 4.0 mi Calm Calm - N/A   Scattered Clouds
4:45 AM 60.8 °F - 60.8 °F 100% 30.08 in 4.0 mi Calm Calm - N/A   Mostly Cloudy
4:53 AM 61.0 °F - 60.1 °F 97% 30.06 in 1.2 mi Calm Calm - N/A   Overcast
5:05 AM 60.8 °F - 60.8 °F 100% 30.08 in 0.8 mi Calm Calm - N/A   Mist
5:20 AM 60.8 °F - 60.8 °F 100% 30.08 in 2.0 mi Calm Calm - N/A   Mostly Cloudy
5:28 AM 60.8 °F - 60.8 °F 100% 30.08 in 3.0 mi Calm Calm - N/A   Mostly Cloudy
5:53 AM 60.1 °F - 59.0 °F 96% 30.06 in 4.0 mi Calm Calm - N/A   Mostly Cloudy
6:22 AM 62.6 °F - 60.8 °F 94% 30.09 in 1.8 mi Calm Calm - N/A   Overcast
6:34 AM 62.6 °F - 60.8 °F 94% 30.09 in 0.5 mi Calm Calm - N/A Fog Fog
6:49 AM 62.6 °F - 62.6 °F 100% 30.10 in 0.2 mi Calm Calm - N/A Fog Fog
6:53 AM 62.1 °F - 62.1 °F 100% 30.07 in 0.2 mi Calm Calm - N/A Fog Fog
7:09 AM 62.6 °F - 62.6 °F 100% 30.10 in 0.2 mi Calm Calm - N/A Fog Fog
7:53 AM 64.9 °F - 64.9 °F 100% 30.08 in 0.2 mi Calm Calm - N/A Fog Fog
8:18 AM 64.4 °F - 64.4 °F 100% 30.11 in 0.2 mi Calm Calm - N/A Fog Fog
8:53 AM 64.9 °F - 64.9 °F 100% 30.10 in 0.2 mi Calm Calm - N/A Fog Fog
9:53 AM 66.9 °F - 66.9 °F 100% 30.11 in 1.5 mi Calm Calm - N/A   Overcast
9:58 AM 66.2 °F - 66.2 °F 100% 30.12 in 3.0 mi Calm Calm - N/A   Overcast
10:26 AM 71.6 °F - 69.8 °F 94% 30.12 in 10.0 mi Calm Calm - N/A   Scattered Clouds
10:53 AM 75.0 °F - 68.0 °F 79% 30.10 in 10.0 mi Calm Calm - N/A   Clear
11:53 AM 80.1 °F 82.1 °F 66.0 °F 62% 30.08 in 10.0 mi SE 3.5 mph - N/A   Partly Cloudy
12:53 PM 82.0 °F 83.8 °F 64.9 °F 56% 30.06 in 10.0 mi Calm Calm - N/A   Clear
1:53 PM 82.9 °F 84.4 °F 64.0 °F 53% 30.05 in 10.0 mi Variable 3.5 mph - N/A   Clear
2:53 PM 84.0 °F 84.5 °F 62.1 °F 47% 30.03 in 10.0 mi Calm Calm - N/A   Clear
3:53 PM 84.9 °F 86.1 °F 64.0 °F 49% 30.01 in 10.0 mi Variable 3.5 mph - N/A   Clear
4:53 PM 84.9 °F 85.9 °F 63.0 °F 48% 30.00 in 10.0 mi Variable 3.5 mph - N/A   Clear
5:53 PM 80.1 °F 82.7 °F 68.0 °F 67% 30.00 in 10.0 mi Calm Calm - N/A   Partly Cloudy
6:53 PM 79.0 °F - 68.0 °F 69% 29.99 in 10.0 mi Calm Calm - N/A   Clear
7:53 PM 73.9 °F - 68.0 °F 82% 29.99 in 10.0 mi Calm Calm - N/A   Clear
8:53 PM 71.1 °F - 68.0 °F 90% 30.00 in 10.0 mi Calm Calm - N/A   Clear
9:53 PM 69.1 °F - 66.9 °F 93% 30.02 in 8.0 mi Calm Calm - N/A   Clear
10:53 PM 66.9 °F - 66.0 °F 97% 30.01 in 6.0 mi Calm Calm - N/A   Clear
11:53 PM 66.9 °F - 64.9 °F 93% 30.01 in 5.0 mi Calm Calm - N/A   Clear